Pittsfield, IL

5:36 PM CST on December 16, 2017 (GMT -0600)
Pittsfield Penstone Municipal

Weather History for KPPQ - February, 2013

Change the Weather History Date:

Monday, February 25, 2013

  Actual Average (KUIN) Record (KUIN)
Temperature  
Mean Temperature 32 °F -  
Max Temperature 42 °F 41 °F 71 °F (2000)
Min Temperature 23 °F 24 °F -5 °F (1914)
Degree Days  
Heating Degree Days 32    
Moisture  
Dew Point 27 °F    
Average Humidity 78    
Maximum Humidity 94    
Minimum Humidity 57    
Precipitation  
Precipitation 0.00 in - - ()
Sea Level Pressure  
Sea Level Pressure 29.97 in    
Wind  
Wind Speed 6 mph (NE)    
Max Wind Speed 18 mph    
Max Gust Speed 26 mph    
Visibility 8 miles    
Events      
Averages and records for this station are not official NWS values.
T = Trace of Precipitation, MM = Missing Value Source: NWS Daily Summary

Daily Weather History Graph

Daily Weather History Graph

Search for Another Location

Airport or City:

Trip Planner

Search our weather history database for the weather conditions in past years. The results will help you decide how hot, cold, wet, or windy it might be!

Date:

Astronomy

Feb. 25, 2013 Rise Set
Actual Time 6:41 AM CST 5:51 PM CST
Civil Twilight 6:14 AM CST 6:18 PM CST
Nautical Twilight 5:43 AM CST 6:49 PM CST
Astronomical Twilight 5:12 AM CST 7:20 PM CST
Moon 6:04 PM CST (2/25) 6:12 AM CST (2/25)
Length of Visible Light 12h 03m
Length of Day
11h 09m
Full, 100% of the Moon is Illuminated
Feb 25
Full
Feb 25
Full
Mar 4
Last Quarter
Mar 11
New
Mar 19
First Quarter

Hourly Weather History & Observations

Time (CST) Temp. Windchill Dew Point Humidity Pressure Visibility Wind Dir Wind Speed Gust Speed Precip Events Conditions
12:15 AM 26.6 °F 22.6 °F 22.3 °F 84% 30.07 in 10.0 mi NE 3.5 mph - N/A   Clear
12:35 AM 27.5 °F - 23.2 °F 84% 30.08 in 10.0 mi Calm Calm - N/A   Clear
12:55 AM 25.9 °F - 21.9 °F 85% 30.08 in 7.0 mi Calm Calm - N/A   Clear
1:15 AM 26.1 °F - 22.1 °F 85% 30.09 in 7.0 mi Calm Calm - N/A   Clear
1:35 AM 25.0 °F - 21.9 °F 88% 30.09 in 7.0 mi Calm Calm - N/A   Clear
1:55 AM 24.6 °F 20.3 °F 21.6 °F 88% 30.09 in 7.0 mi NE 3.5 mph - N/A   Clear
2:15 AM 25.9 °F 20.3 °F 22.8 °F 88% 30.09 in 7.0 mi NE 4.6 mph - N/A   Clear
2:35 AM 25.3 °F 17.6 °F 21.9 °F 87% 30.08 in 7.0 mi NE 6.9 mph - N/A   Clear
2:55 AM 25.2 °F 18.3 °F 21.9 °F 87% 30.07 in 7.0 mi ENE 5.8 mph - N/A   Clear
3:15 AM 24.4 °F 18.6 °F 21.9 °F 90% 30.06 in 5.0 mi ENE 4.6 mph - N/A   Clear
3:35 AM 24.4 °F 17.5 °F 22.3 °F 91% 30.05 in 5.0 mi ENE 5.8 mph - N/A   Clear
3:55 AM 24.8 °F 20.5 °F 22.3 °F 90% 30.07 in 7.0 mi North 3.5 mph - N/A   Clear
4:15 AM 24.8 °F 19.1 °F 22.6 °F 91% 30.06 in 5.0 mi ENE 4.6 mph - N/A   Clear
4:35 AM 24.1 °F 18.2 °F 21.9 °F 91% 30.07 in 5.0 mi NE 4.6 mph - N/A   Clear
4:55 AM 23.4 °F 17.4 °F 21.4 °F 92% 30.06 in 5.0 mi ENE 4.6 mph - N/A   Clear
5:15 AM 23.4 °F - 21.2 °F 91% 30.06 in 5.0 mi Calm Calm - N/A   Clear
5:35 AM 23.7 °F 16.6 °F 21.9 °F 93% 30.06 in 5.0 mi NE 5.8 mph - N/A   Clear
5:55 AM 24.6 °F 17.7 °F 22.6 °F 92% 30.05 in 5.0 mi NE 5.8 mph - N/A   Clear
6:15 AM 24.1 °F 16.0 °F 22.5 °F 94% 30.04 in 5.0 mi NE 6.9 mph - N/A   Clear
6:35 AM 24.8 °F 16.1 °F 22.8 °F 92% 30.04 in 5.0 mi NE 8.1 mph - N/A   Clear
6:55 AM 25.0 °F 17.1 °F 22.8 °F 91% 30.05 in 4.0 mi NE 6.9 mph - N/A   Clear
7:15 AM 24.8 °F 17.9 °F 22.5 °F 91% 30.05 in 4.0 mi NE 5.8 mph - N/A   Clear
7:35 AM 24.8 °F 19.1 °F 22.6 °F 91% 30.05 in 4.0 mi NE 4.6 mph - N/A   Clear
7:55 AM 26.1 °F 19.4 °F 23.4 °F 90% 30.05 in 4.0 mi NE 5.8 mph - N/A   Clear
8:15 AM 28.0 °F 24.2 °F 24.3 °F 86% 30.05 in 5.0 mi NE 3.5 mph - N/A   Clear
8:35 AM 28.9 °F 22.8 °F 24.6 °F 84% 30.05 in 5.0 mi ENE 5.8 mph - N/A   Haze
8:55 AM 29.8 °F 23.0 °F 24.8 °F 81% 30.04 in 5.0 mi NE 6.9 mph - N/A   Haze
9:15 AM 32.0 °F 27.5 °F 25.7 °F 78% 30.04 in 7.0 mi ENE 4.6 mph - N/A   Clear
9:35 AM 34.5 °F 30.4 °F 26.2 °F 72% 30.05 in 10.0 mi East 4.6 mph - N/A   Clear
9:55 AM 36.7 °F 32.9 °F 26.8 °F 67% 30.06 in 10.0 mi East 4.6 mph - N/A   Clear
10:15 AM 37.0 °F 33.3 °F 26.6 °F 66% 30.05 in 10.0 mi NE 4.6 mph - N/A   Clear
10:35 AM 38.1 °F 31.7 °F 27.3 °F 65% 30.05 in 10.0 mi NE 9.2 mph - N/A   Clear
10:55 AM 39.6 °F 34.0 °F 27.9 °F 63% 30.05 in 10.0 mi ENE 8.1 mph - N/A   Clear
11:15 AM 40.5 °F 34.1 °F 27.5 °F 60% 30.04 in 10.0 mi ENE 10.4 mph - N/A   Clear
11:35 AM 41.5 °F 35.4 °F 27.7 °F 58% 30.03 in 10.0 mi ENE 10.4 mph - N/A   Clear
11:55 AM 41.4 °F 35.7 °F 28.4 °F 60% 30.03 in 10.0 mi NE 9.2 mph - N/A   Clear
12:15 PM 42.3 °F 36.3 °F 27.9 °F 57% 30.03 in 10.0 mi ENE 10.4 mph - N/A   Clear
12:35 PM 41.5 °F 34.6 °F 28.9 °F 61% 30.01 in 10.0 mi NE 12.7 mph - N/A   Clear
12:55 PM 41.2 °F 35.5 °F 29.3 °F 63% 30.01 in 10.0 mi NE 9.2 mph - N/A   Clear
1:15 PM 41.0 °F 34.7 °F 29.3 °F 63% 29.99 in 10.0 mi NE 10.4 mph - N/A   Clear
1:35 PM 40.8 °F 33.7 °F 28.9 °F 63% 29.97 in 10.0 mi ENE 12.7 mph - N/A   Clear
1:55 PM 41.0 °F 33.1 °F 29.3 °F 63% 29.94 in 10.0 mi NE 15.0 mph 20.7 mph N/A   Clear
2:15 PM 41.0 °F 33.5 °F 30.0 °F 65% 29.94 in 10.0 mi ENE 13.8 mph 18.4 mph N/A   Clear
2:35 PM 41.7 °F 34.8 °F 30.9 °F 66% 29.94 in 10.0 mi ENE 12.7 mph 16.1 mph N/A   Clear
2:55 PM 41.5 °F 36.4 °F 31.1 °F 66% 29.94 in 10.0 mi NE 8.1 mph 17.3 mph N/A   Clear
3:15 PM 41.4 °F 35.2 °F 31.6 °F 68% 29.92 in 10.0 mi NE 10.4 mph - N/A   Clear
3:35 PM 41.0 °F 34.3 °F 31.6 °F 69% 29.91 in 10.0 mi NE 11.5 mph - N/A   Clear
3:55 PM 41.0 °F 34.3 °F 32.0 °F 70% 29.91 in 10.0 mi NE 11.5 mph 16.1 mph N/A   Clear
4:15 PM 40.6 °F 33.0 °F 32.0 °F 71% 29.89 in 10.0 mi NE 13.8 mph 18.4 mph N/A   Clear
4:35 PM 40.1 °F 33.2 °F 32.0 °F 73% 29.89 in 10.0 mi NNE 11.5 mph 16.1 mph N/A   Clear
4:55 PM 39.7 °F 34.3 °F 32.0 °F 74% 29.88 in 10.0 mi NNE 8.1 mph 17.3 mph N/A   Clear
5:15 PM 39.4 °F 36.1 °F 32.2 °F 75% 29.91 in 10.0 mi NNE 4.6 mph - N/A   Clear
5:35 PM 39.0 °F 33.4 °F 32.2 °F 76% 29.90 in 10.0 mi NNE 8.1 mph - N/A   Clear
5:55 PM 38.7 °F 31.8 °F 32.2 °F 78% 29.86 in 10.0 mi NNE 10.4 mph 16.1 mph N/A   Clear
6:15 PM 39.2 °F 32.0 °F 32.2 °F 76% 29.87 in 10.0 mi NNE 11.5 mph - N/A   Clear
6:35 PM 38.8 °F 32.1 °F 32.2 °F 77% 29.86 in 10.0 mi NNE 10.4 mph 18.4 mph N/A   Scattered Clouds
6:55 PM 39.0 °F 29.6 °F 32.5 °F 78% 29.85 in 10.0 mi NNE 18.4 mph 24.2 mph N/A   Mostly Cloudy
7:15 PM 39.2 °F 32.0 °F 32.7 °F 78% 29.87 in 10.0 mi NNE 11.5 mph 17.3 mph N/A   Overcast
7:35 PM 38.8 °F 32.1 °F 32.5 °F 78% 29.90 in 10.0 mi NE 10.4 mph 17.3 mph N/A   Overcast
7:55 PM 38.7 °F 32.9 °F 32.4 °F 78% 29.91 in 10.0 mi NE 8.1 mph - N/A   Mostly Cloudy
8:15 PM 38.3 °F 30.9 °F 32.4 °F 79% 29.89 in 10.0 mi NNE 11.5 mph 18.4 mph N/A   Mostly Cloudy
8:35 PM 38.3 °F 30.9 °F 32.2 °F 79% 29.88 in 10.0 mi NE 11.5 mph - N/A   Mostly Cloudy
8:55 PM 38.1 °F 29.8 °F 32.0 °F 79% 29.86 in 10.0 mi NE 13.8 mph 20.7 mph N/A   Scattered Clouds
9:15 PM 37.6 °F 28.4 °F 32.0 °F 80% 29.84 in 10.0 mi NE 16.1 mph 25.3 mph N/A   Mostly Cloudy
9:35 PM 37.4 °F 27.5 °F 31.8 °F 80% 29.81 in 10.0 mi NE 18.4 mph 26.5 mph N/A   Overcast
9:55 PM 37.4 °F 27.5 °F 31.1 °F 78% 29.81 in 10.0 mi ENE 18.4 mph 24.2 mph N/A   Mostly Cloudy
10:15 PM 37.2 °F 28.3 °F 31.1 °F 79% 29.81 in 10.0 mi ENE 15.0 mph 24.2 mph N/A   Overcast
10:35 PM 37.0 °F 28.1 °F 30.9 °F 79% 29.79 in 10.0 mi NE 15.0 mph 21.9 mph N/A   Mostly Cloudy
10:55 PM 36.9 °F 27.8 °F 30.6 °F 78% 29.78 in 10.0 mi NE 15.0 mph 23.0 mph N/A   Overcast
11:15 PM 36.7 °F 27.6 °F 30.7 °F 79% 29.78 in 10.0 mi NE 15.0 mph 20.7 mph N/A   Overcast
11:35 PM 36.7 °F 28.0 °F 30.6 °F 78% 29.76 in 10.0 mi NE 13.8 mph 23.0 mph N/A   Overcast
11:55 PM 36.7 °F 27.6 °F 30.6 °F 78% 29.76 in 10.0 mi ENE 15.0 mph 23.0 mph N/A   Overcast